Location: Newark
(49.8348°N, 24.0280°E)
Time: 17:59:43
(UTC+00:00)

Transit 2A - Pass Details

Date: 20 January 2020
Orbit: 599 x 959 km, 66.7° (Epoch: 25 February)

Event Time Altitude Azimuth Distance (km) Brightness Sun altitude
Rises 05:58:47 0° 304° (NW) 3,004 - -2.7°
Exits shadow 05:59:51 - 297° (WNW) 2,718 8.1 -2.5°
Reaches altitude 10° 06:03:27 10° 262° (W) 2,180 7.9 -2.0°
Maximum altitude 06:04:03 10° 255° (WSW) 2,179 8.0 -2.0°
Drops below altitude 10° 06:04:39 10° 248° (WSW) 2,206 8.0 -1.9°
Sets 06:09:39 0° 207° (SSW) 3,241 9.3 -1.2°
